Time,TemperatureF,DewpointF,PressureIn,WindDirection,WindDirectionDegrees,WindSpeedMPH,WindSpeedGustMPH,Humidity,HourlyPrecipIn,Conditions,Clouds,dailyrainin,SoftwareType,DateUTC
2013-02-17 00:21:00,31.0,25.0,-100.00,NNW,340,22.0,29.0,77,-99.99,,,-99.99,,2013-02-17 05:21:00,
2013-02-17 00:32:00,31.0,25.0,-100.00,NNW,340,22.0,29.0,77,-99.99,,,-99.99,,2013-02-17 05:32:00,
2013-02-17 00:42:00,31.0,25.0,-100.00,NNW,340,20.0,27.0,78,-99.99,,,-99.99,,2013-02-17 05:42:00,
2013-02-17 00:51:00,31.0,25.0,-100.00,NNW,340,20.0,27.0,78,-99.99,,,-99.99,,2013-02-17 05:51:00,
2013-02-17 01:01:00,30.0,24.0,-100.00,North,350,22.0,27.0,78,-99.99,,,-99.99,,2013-02-17 06:01:00,
2013-02-17 01:11:00,30.0,24.0,-100.00,North,350,22.0,27.0,78,-99.99,,,-99.99,,2013-02-17 06:11:00,
2013-02-17 01:21:00,30.0,24.0,-100.00,North,350,22.0,27.0,75,-99.99,,,-99.99,,2013-02-17 06:21:00,
2013-02-17 01:31:00,30.0,24.0,-100.00,North,350,22.0,27.0,75,-99.99,,,-99.99,,2013-02-17 06:31:00,
2013-02-17 01:41:00,30.0,23.0,-100.00,North,350,20.0,27.0,72,-99.99,,,-99.99,,2013-02-17 06:41:00,
2013-02-17 01:51:00,30.0,23.0,-100.00,North,350,20.0,27.0,72,-99.99,,,-99.99,,2013-02-17 06:51:00,
2013-02-17 02:00:00,29.0,22.0,-100.00,NNW,340,27.0,34.0,73,-99.99,,,-99.99,,2013-02-17 07:00:00,
2013-02-17 02:01:00,30.0,23.0,-100.00,North,350,20.0,27.0,72,-99.99,,,-99.99,,2013-02-17 07:01:00,
2013-02-17 02:11:00,30.0,23.0,-100.00,North,350,20.0,27.0,72,-99.99,,,-99.99,,2013-02-17 07:11:00,
2013-02-17 02:21:00,29.0,22.0,-100.00,North,350,25.0,31.0,74,-99.99,,,-99.99,,2013-02-17 07:21:00,
2013-02-17 02:31:00,29.0,22.0,-100.00,North,350,25.0,31.0,74,-99.99,,,-99.99,,2013-02-17 07:31:00,
2013-02-17 02:41:00,29.0,22.0,-100.00,NNW,340,27.0,34.0,73,-99.99,,,-99.99,,2013-02-17 07:41:00,
2013-02-17 02:51:00,29.0,22.0,-100.00,NNW,340,27.0,34.0,73,-99.99,,,-99.99,,2013-02-17 07:51:00,
2013-02-17 03:00:00,29.0,17.0,-100.00,NNW,330,27.0,36.0,61,-99.99,,,-99.99,,2013-02-17 08:00:00,
2013-02-17 03:21:00,28.0,18.0,-100.00,NNW,330,27.0,40.0,65,-99.99,,,-99.99,,2013-02-17 08:21:00,
2013-02-17 03:31:00,28.0,18.0,-100.00,NNW,330,27.0,40.0,65,-99.99,,,-99.99,,2013-02-17 08:31:00,
2013-02-17 03:41:00,29.0,17.0,-100.00,NNW,330,27.0,36.0,61,-99.99,,,-99.99,,2013-02-17 08:41:00,
2013-02-17 03:52:00,29.0,17.0,-100.00,NNW,330,27.0,36.0,61,-99.99,,,-99.99,,2013-02-17 08:52:00,
2013-02-17 04:11:00,28.0,17.0,-100.00,NNW,340,27.0,36.0,61,-99.99,,,-99.99,,2013-02-17 09:11:00,
2013-02-17 04:21:00,28.0,17.0,-100.00,NNW,340,27.0,36.0,61,-99.99,,,-99.99,,2013-02-17 09:21:00,
2013-02-17 04:31:00,28.0,17.0,-100.00,NNW,340,27.0,36.0,61,-99.99,,,-99.99,,2013-02-17 09:31:00,
2013-02-17 04:41:00,29.0,16.0,-100.00,NNW,330,25.0,31.0,59,-99.99,,,-99.99,,2013-02-17 09:41:00,
2013-02-17 04:51:00,29.0,16.0,-100.00,NNW,330,25.0,31.0,59,-99.99,,,-99.99,,2013-02-17 09:51:00,
2013-02-17 05:01:00,29.0,16.0,-100.00,NNW,340,22.0,31.0,59,-99.99,,,-99.99,,2013-02-17 10:01:00,
2013-02-17 05:11:00,29.0,16.0,-100.00,NNW,340,22.0,31.0,59,-99.99,,,-99.99,,2013-02-17 10:11:00,
2013-02-17 05:41:00,28.0,16.0,-100.00,NNW,340,27.0,34.0,58,-99.99,,,-99.99,,2013-02-17 10:41:00,
2013-02-17 05:51:00,28.0,16.0,-100.00,NNW,340,27.0,34.0,58,-99.99,,,-99.99,,2013-02-17 10:51:00,
2013-02-17 06:01:00,28.0,16.0,-100.00,NNW,340,27.0,34.0,58,-99.99,,,-99.99,,2013-02-17 11:01:00,
2013-02-17 06:11:00,28.0,16.0,-100.00,NNW,340,27.0,34.0,58,-99.99,,,-99.99,,2013-02-17 11:11:00,
2013-02-17 06:21:00,28.0,15.0,-100.00,NNW,340,27.0,38.0,59,-99.99,,,-99.99,,2013-02-17 11:21:00,
2013-02-17 06:32:00,28.0,15.0,-100.00,NNW,340,27.0,38.0,59,-99.99,,,-99.99,,2013-02-17 11:32:00,
2013-02-17 06:41:00,28.0,14.0,-100.00,NNW,340,22.0,29.0,55,-99.99,,,-99.99,,2013-02-17 11:41:00,
2013-02-17 06:52:00,28.0,14.0,-100.00,NNW,340,22.0,29.0,55,-99.99,,,-99.99,,2013-02-17 11:52:00,
2013-02-17 07:00:00,27.0,11.0,-100.00,NW,310,25.0,34.0,49,-99.99,,,-99.99,,2013-02-17 12:00:00,
2013-02-17 07:02:00,28.0,13.0,-100.00,NNW,330,22.0,34.0,51,-99.99,,,-99.99,,2013-02-17 12:02:00,
2013-02-17 07:11:00,28.0,13.0,-100.00,NNW,330,22.0,34.0,51,-99.99,,,-99.99,,2013-02-17 12:11:00,
2013-02-17 07:22:00,28.0,11.0,-100.00,NW,320,25.0,31.0,48,-99.99,,,-99.99,,2013-02-17 12:22:00,
2013-02-17 07:31:00,28.0,11.0,-100.00,NW,320,25.0,31.0,48,-99.99,,,-99.99,,2013-02-17 12:31:00,
2013-02-17 07:42:00,27.0,11.0,-100.00,NW,310,25.0,34.0,49,-99.99,,,-99.99,,2013-02-17 12:42:00,
2013-02-17 07:52:00,27.0,11.0,-100.00,NW,310,25.0,34.0,49,-99.99,,,-99.99,,2013-02-17 12:52:00,
2013-02-17 08:00:00,26.0,10.0,-100.00,NW,310,27.0,34.0,51,-99.99,,,-99.99,,2013-02-17 13:00:00,
2013-02-17 08:11:00,26.0,10.0,-100.00,NW,310,27.0,34.0,49,-99.99,,,-99.99,,2013-02-17 13:11:00,
2013-02-17 08:21:00,26.0,10.0,-100.00,NW,310,27.0,34.0,49,-99.99,,,-99.99,,2013-02-17 13:21:00,
2013-02-17 08:32:00,26.0,10.0,-100.00,NW,310,27.0,34.0,49,-99.99,,,-99.99,,2013-02-17 13:32:00,
2013-02-17 08:41:00,26.0,10.0,-100.00,NW,310,27.0,34.0,51,-99.99,,,-99.99,,2013-02-17 13:41:00,
2013-02-17 08:51:00,26.0,10.0,-100.00,NW,310,27.0,34.0,51,-99.99,,,-99.99,,2013-02-17 13:51:00,
2013-02-17 09:21:00,26.0,10.0,-100.00,NW,310,27.0,36.0,52,-99.99,,,-99.99,,2013-02-17 14:21:00,
2013-02-17 09:32:00,26.0,10.0,-100.00,NW,310,27.0,36.0,52,-99.99,,,-99.99,,2013-02-17 14:32:00,
2013-02-17 09:42:00,25.0,10.0,-100.00,NW,310,27.0,36.0,51,-99.99,,,-99.99,,2013-02-17 14:42:00,
2013-02-17 09:52:00,25.0,10.0,-100.00,NW,310,27.0,36.0,51,-99.99,,,-99.99,,2013-02-17 14:52:00,
2013-02-17 10:00:00,25.0,10.0,-100.00,WNW,300,29.0,36.0,52,-99.99,,,-99.99,,2013-02-17 15:00:00,
2013-02-17 10:01:00,25.0,11.0,-100.00,WNW,300,27.0,34.0,53,-99.99,,,-99.99,,2013-02-17 15:01:00,
2013-02-17 10:11:00,25.0,11.0,-100.00,WNW,300,27.0,34.0,53,-99.99,,,-99.99,,2013-02-17 15:11:00,
2013-02-17 10:21:00,25.0,11.0,-100.00,WNW,300,27.0,34.0,53,-99.99,,,-99.99,,2013-02-17 15:21:00,
2013-02-17 10:31:00,25.0,10.0,-100.00,WNW,300,29.0,36.0,52,-99.99,,,-99.99,,2013-02-17 15:31:00,
2013-02-17 10:41:00,25.0,10.0,-100.00,WNW,300,29.0,36.0,52,-99.99,,,-99.99,,2013-02-17 15:41:00,
2013-02-17 10:51:00,25.0,10.0,-100.00,WNW,300,29.0,36.0,52,-99.99,,,-99.99,,2013-02-17 15:51:00,
2013-02-17 11:00:00,26.0,10.0,-100.00,WNW,300,27.0,34.0,50,-99.99,,,-99.99,,2013-02-17 16:00:00,
2013-02-17 11:21:00,26.0,11.0,-100.00,WNW,300,27.0,36.0,51,-99.99,,,-99.99,,2013-02-17 16:21:00,
2013-02-17 11:31:00,26.0,10.0,-100.00,WNW,300,27.0,34.0,50,-99.99,,,-99.99,,2013-02-17 16:31:00,
2013-02-17 11:41:00,26.0,10.0,-100.00,WNW,300,27.0,34.0,50,-99.99,,,-99.99,,2013-02-17 16:41:00,
2013-02-17 11:51:00,26.0,10.0,-100.00,WNW,300,27.0,34.0,50,-99.99,,,-99.99,,2013-02-17 16:51:00,
2013-02-17 12:11:00,27.0,10.0,-100.00,WNW,300,29.0,36.0,48,-99.99,,,-99.99,,2013-02-17 17:11:00,
2013-02-17 12:21:00,27.0,10.0,-100.00,WNW,300,29.0,36.0,48,-99.99,,,-99.99,,2013-02-17 17:21:00,
2013-02-17 12:31:00,27.0,10.0,-100.00,WNW,300,29.0,36.0,48,-99.99,,,-99.99,,2013-02-17 17:31:00,
2013-02-17 12:41:00,27.0,10.0,-100.00,WNW,300,29.0,36.0,48,-99.99,,,-99.99,,2013-02-17 17:41:00,
2013-02-17 12:52:00,27.0,10.0,-100.00,WNW,290,31.0,40.0,48,-99.99,,,-99.99,,2013-02-17 17:52:00,
2013-02-17 13:00:00,28.0,10.0,-100.00,WNW,290,31.0,40.0,45,-99.99,,,-99.99,,2013-02-17 18:00:00,
2013-02-17 13:01:00,28.0,11.0,-100.00,WNW,290,29.0,40.0,48,-99.99,,,-99.99,,2013-02-17 18:01:00,
2013-02-17 13:11:00,28.0,11.0,-100.00,WNW,290,29.0,40.0,48,-99.99,,,-99.99,,2013-02-17 18:11:00,
2013-02-17 13:21:00,28.0,10.0,-100.00,WNW,290,29.0,45.0,47,-99.99,,,-99.99,,2013-02-17 18:21:00,
2013-02-17 13:32:00,28.0,10.0,-100.00,WNW,290,29.0,45.0,47,-99.99,,,-99.99,,2013-02-17 18:32:00,
2013-02-17 13:41:00,28.0,10.0,-100.00,WNW,290,31.0,40.0,45,-99.99,,,-99.99,,2013-02-17 18:41:00,
2013-02-17 13:52:00,28.0,10.0,-100.00,WNW,290,31.0,40.0,45,-99.99,,,-99.99,,2013-02-17 18:52:00,
2013-02-17 14:00:00,28.0,14.0,-100.00,WNW,290,34.0,47.0,55,-99.99,,,-99.99,,2013-02-17 19:00:00,
2013-02-17 14:31:00,28.0,14.0,-100.00,WNW,290,34.0,47.0,55,-99.99,,,-99.99,,2013-02-17 19:31:00,
2013-02-17 14:41:00,28.0,14.0,-100.00,WNW,290,34.0,47.0,55,-99.99,,,-99.99,,2013-02-17 19:41:00,
2013-02-17 14:51:00,28.0,14.0,-100.00,WNW,290,34.0,47.0,55,-99.99,,,-99.99,,2013-02-17 19:51:00,
2013-02-17 15:11:00,30.0,10.0,-100.00,WNW,290,31.0,40.0,42,-99.99,,,-99.99,,2013-02-17 20:11:00,
2013-02-17 15:21:00,30.0,10.0,-100.00,WNW,290,31.0,40.0,42,-99.99,,,-99.99,,2013-02-17 20:21:00,
2013-02-17 15:31:00,30.0,10.0,-100.00,WNW,290,31.0,40.0,42,-99.99,,,-99.99,,2013-02-17 20:31:00,
2013-02-17 15:42:00,30.0,9.0,-100.00,WNW,290,31.0,40.0,40,-99.99,,,-99.99,,2013-02-17 20:42:00,
2013-02-17 15:52:00,30.0,9.0,-100.00,WNW,290,31.0,40.0,40,-99.99,,,-99.99,,2013-02-17 20:52:00,
2013-02-17 16:01:00,30.0,9.0,-100.00,West,280,34.0,45.0,41,-99.99,,,-99.99,,2013-02-17 21:01:00,
2013-02-17 16:11:00,30.0,9.0,-100.00,West,280,34.0,45.0,41,-99.99,,,-99.99,,2013-02-17 21:11:00,
2013-02-17 16:21:00,30.0,9.0,-100.00,West,280,31.0,43.0,39,-99.99,,,-99.99,,2013-02-17 21:21:00,
2013-02-17 16:31:00,30.0,11.0,-100.00,West,280,31.0,45.0,44,-99.99,,,-99.99,,2013-02-17 21:31:00,
2013-02-17 16:41:00,30.0,11.0,-100.00,West,280,31.0,45.0,44,-99.99,,,-99.99,,2013-02-17 21:41:00,
2013-02-17 16:52:00,30.0,11.0,-100.00,West,280,31.0,45.0,44,-99.99,,,-99.99,,2013-02-17 21:52:00,
2013-02-17 17:01:00,29.0,10.0,-100.00,West,280,34.0,43.0,43,-99.99,,,-99.99,,2013-02-17 22:01:00,
2013-02-17 17:11:00,29.0,10.0,-100.00,West,280,34.0,43.0,43,-99.99,,,-99.99,,2013-02-17 22:11:00,
2013-02-17 17:21:00,29.0,10.0,-100.00,West,280,31.0,43.0,43,-99.99,,,-99.99,,2013-02-17 22:21:00,
2013-02-17 17:32:00,29.0,10.0,-100.00,West,280,31.0,43.0,43,-99.99,,,-99.99,,2013-02-17 22:32:00,
2013-02-17 17:41:00,29.0,9.0,-100.00,West,280,34.0,43.0,42,-99.99,,,-99.99,,2013-02-17 22:41:00,
2013-02-17 17:52:00,29.0,9.0,-100.00,West,280,34.0,43.0,42,-99.99,,,-99.99,,2013-02-17 22:52:00,
2013-02-17 18:00:00,28.0,9.0,-100.00,WNW,290,31.0,40.0,43,-99.99,,,-99.99,,2013-02-17 23:00:00,
2013-02-17 18:01:00,29.0,10.0,-100.00,WNW,290,29.0,40.0,43,-99.99,,,-99.99,,2013-02-17 23:01:00,
2013-02-17 18:11:00,29.0,10.0,-100.00,WNW,290,29.0,40.0,43,-99.99,,,-99.99,,2013-02-17 23:11:00,
2013-02-17 18:21:00,29.0,9.0,-100.00,WNW,290,31.0,40.0,43,-99.99,,,-99.99,,2013-02-17 23:21:00,
2013-02-17 18:31:00,29.0,9.0,-100.00,WNW,290,31.0,40.0,43,-99.99,,,-99.99,,2013-02-17 23:31:00,
2013-02-17 18:41:00,28.0,9.0,-100.00,WNW,290,31.0,40.0,43,-99.99,,,-99.99,,2013-02-17 23:41:00,
2013-02-17 18:52:00,28.0,9.0,-100.00,WNW,290,31.0,40.0,43,-99.99,,,-99.99,,2013-02-17 23:52:00,
2013-02-17 19:11:00,27.0,9.0,-100.00,WNW,290,31.0,40.0,46,-99.99,,,-99.99,,2013-02-18 00:11:00,
2013-02-17 19:22:00,27.0,9.0,-100.00,WNW,290,31.0,40.0,46,-99.99,,,-99.99,,2013-02-18 00:22:00,
2013-02-17 19:31:00,27.0,9.0,-100.00,WNW,290,31.0,40.0,46,-99.99,,,-99.99,,2013-02-18 00:31:00,
2013-02-17 19:41:00,27.0,9.0,-100.00,WNW,290,34.0,43.0,46,-99.99,,,-99.99,,2013-02-18 00:41:00,
2013-02-17 19:52:00,27.0,9.0,-100.00,WNW,290,34.0,43.0,46,-99.99,,,-99.99,,2013-02-18 00:52:00,
2013-02-17 20:01:00,26.0,10.0,-100.00,West,280,34.0,43.0,49,-99.99,,,-99.99,,2013-02-18 01:01:00,
2013-02-17 20:11:00,26.0,10.0,-100.00,West,280,34.0,43.0,49,-99.99,,,-99.99,,2013-02-18 01:11:00,
2013-02-17 20:21:00,26.0,9.0,-100.00,WNW,290,34.0,40.0,48,-99.99,,,-99.99,,2013-02-18 01:21:00,
2013-02-17 20:31:00,26.0,9.0,-100.00,WNW,290,34.0,40.0,48,-99.99,,,-99.99,,2013-02-18 01:31:00,
2013-02-17 20:41:00,25.0,9.0,-100.00,WNW,290,31.0,40.0,49,-99.99,,,-99.99,,2013-02-18 01:41:00,
2013-02-17 20:51:00,25.0,9.0,-100.00,WNW,290,31.0,40.0,49,-99.99,,,-99.99,,2013-02-18 01:51:00,
2013-02-17 21:01:00,24.0,9.0,-100.00,WNW,290,31.0,40.0,50,-99.99,,,-99.99,,2013-02-18 02:01:00,
2013-02-17 21:11:00,24.0,9.0,-100.00,WNW,290,31.0,40.0,50,-99.99,,,-99.99,,2013-02-18 02:11:00,
2013-02-17 21:21:00,24.0,10.0,-100.00,West,280,29.0,40.0,53,-99.99,,,-99.99,,2013-02-18 02:21:00,
2013-02-17 21:31:00,24.0,10.0,-100.00,West,280,29.0,40.0,53,-99.99,,,-99.99,,2013-02-18 02:31:00,
2013-02-17 21:41:00,24.0,9.0,-100.00,WNW,290,31.0,40.0,52,-99.99,,,-99.99,,2013-02-18 02:41:00,
2013-02-17 21:51:00,24.0,9.0,-100.00,WNW,290,31.0,40.0,52,-99.99,,,-99.99,,2013-02-18 02:51:00,
2013-02-17 22:00:00,22.0,9.0,-100.00,West,280,34.0,45.0,56,-99.99,,,-99.99,,2013-02-18 03:00:00,
2013-02-17 22:01:00,23.0,9.0,-100.00,West,280,31.0,40.0,53,-99.99,,,-99.99,,2013-02-18 03:01:00,
2013-02-17 22:11:00,23.0,9.0,-100.00,West,280,31.0,40.0,53,-99.99,,,-99.99,,2013-02-18 03:11:00,
2013-02-17 22:21:00,23.0,10.0,-100.00,West,280,31.0,38.0,57,-99.99,,,-99.99,,2013-02-18 03:21:00,
2013-02-17 22:31:00,23.0,10.0,-100.00,West,280,31.0,38.0,57,-99.99,,,-99.99,,2013-02-18 03:31:00,
2013-02-17 22:41:00,22.0,9.0,-100.00,West,280,34.0,45.0,56,-99.99,,,-99.99,,2013-02-18 03:41:00,
2013-02-17 22:51:00,22.0,9.0,-100.00,West,280,34.0,45.0,56,-99.99,,,-99.99,,2013-02-18 03:51:00,
2013-02-17 23:11:00,21.0,9.0,-100.00,West,280,31.0,40.0,58,-99.99,,,-99.99,,2013-02-18 04:11:00,
2013-02-17 23:21:00,21.0,9.0,-100.00,West,280,31.0,40.0,58,-99.99,,,-99.99,,2013-02-18 04:21:00,
2013-02-17 23:32:00,21.0,9.0,-100.00,West,280,31.0,40.0,58,-99.99,,,-99.99,,2013-02-18 04:32:00,
2013-02-17 23:41:00,21.0,9.0,-100.00,West,280,34.0,45.0,59,-99.99,,,-99.99,,2013-02-18 04:41:00,
2013-02-17 23:51:00,21.0,9.0,-100.00,West,280,34.0,45.0,59,-99.99,,,-99.99,,2013-02-18 04:51:00,